Time,TemperatureF,DewpointF,PressureIn,WindDirection,WindDirectionDegrees,WindSpeedMPH,WindSpeedGustMPH,Humidity,HourlyPrecipIn,Conditions,Clouds,dailyrainin,SoftwareType,DateUTC
2013-08-19 06:25:00,48.2,42.3,29.81,SSE,155,0.0,5.0,80,0.00,,---,0.00,VWS V13.00,2013-08-19 12:25:00,
2013-08-19 06:30:00,48.2,42.3,29.81,SSE,155,0.0,5.0,80,0.00,,---,0.00,VWS V13.00,2013-08-19 12:30:00,
2013-08-19 06:35:00,47.7,42.2,29.81,SSE,155,8.0,10.0,81,0.00,,---,0.00,VWS V13.00,2013-08-19 12:35:00,
2013-08-19 06:40:00,47.9,42.4,29.80,SSE,153,9.0,11.0,81,0.00,,---,0.00,VWS V13.00,2013-08-19 12:40:00,
2013-08-19 06:45:00,48.9,42.7,29.80,SSE,149,5.0,11.0,79,0.00,,---,0.00,VWS V13.00,2013-08-19 12:45:00,
2013-08-19 06:50:00,49.4,42.8,29.80,SSE,149,6.0,11.0,78,0.00,,---,0.00,VWS V13.00,2013-08-19 12:50:00,
2013-08-19 06:55:00,49.2,42.6,29.80,SSE,149,6.0,11.0,78,0.00,,---,0.00,VWS V13.00,2013-08-19 12:55:00,
2013-08-19 07:00:00,49.2,42.6,29.80,SSE,151,8.0,11.0,78,0.00,,---,0.00,VWS V13.00,2013-08-19 13:00:00,
2013-08-19 07:05:00,49.2,43.0,29.80,SSE,157,10.0,11.0,79,0.00,,---,0.00,VWS V13.00,2013-08-19 13:05:00,
2013-08-19 07:10:00,50.1,43.5,29.80,SSE,157,9.0,10.0,78,0.00,,---,0.00,VWS V13.00,2013-08-19 13:10:00,
2013-08-19 07:15:00,50.8,44.2,29.80,SSE,156,5.0,10.0,78,0.00,,---,0.00,VWS V13.00,2013-08-19 13:15:00,
2013-08-19 07:20:00,51.2,44.2,29.80,SSE,157,5.0,10.0,77,0.00,,---,0.00,VWS V13.00,2013-08-19 13:20:00,
2013-08-19 07:25:00,51.4,44.4,29.80,SSE,155,6.0,10.0,77,0.00,,---,0.00,VWS V13.00,2013-08-19 13:25:00,
2013-08-19 07:30:00,52.1,45.1,29.80,SSE,155,6.0,10.0,77,0.00,,---,0.00,VWS V13.00,2013-08-19 13:30:00,
2013-08-19 07:35:00,52.7,45.4,29.80,SSE,152,4.0,10.0,76,0.00,,---,0.00,VWS V13.00,2013-08-19 13:35:00,
2013-08-19 07:40:00,52.8,44.8,29.79,SSE,151,3.0,4.0,74,0.00,,---,0.00,VWS V13.00,2013-08-19 13:40:00,
2013-08-19 07:45:00,53.0,45.3,29.79,SSE,152,5.0,6.0,75,0.00,,---,0.00,VWS V13.00,2013-08-19 13:45:00,
2013-08-19 07:50:00,53.9,45.5,29.79,SSE,155,6.0,9.0,73,0.00,,---,0.00,VWS V13.00,2013-08-19 13:50:00,
2013-08-19 07:55:00,55.5,47.0,29.81,SSE,153,0.0,9.0,73,0.00,,---,0.00,VWS V13.00,2013-08-19 13:55:00,
2013-08-19 08:00:00,55.9,47.4,29.81,SSE,154,0.0,9.0,73,0.00,,---,0.00,VWS V13.00,2013-08-19 14:00:00,
2013-08-19 08:05:00,56.3,47.0,29.81,SSE,154,0.0,9.0,71,0.00,,---,0.00,VWS V13.00,2013-08-19 14:05:00,
2013-08-19 08:10:00,57.0,48.1,29.80,SSE,154,0.0,0.0,72,0.00,,---,0.00,VWS V13.00,2013-08-19 14:10:00,
2013-08-19 08:15:00,57.7,48.0,29.80,SSE,153,0.0,0.0,70,0.00,,---,0.00,VWS V13.00,2013-08-19 14:15:00,
2013-08-19 08:20:00,58.8,48.7,29.80,SSE,153,0.0,0.0,69,0.00,,---,0.00,VWS V13.00,2013-08-19 14:20:00,
2013-08-19 08:25:00,59.8,48.4,29.78,SSE,153,0.0,0.0,66,0.00,,---,0.00,VWS V13.00,2013-08-19 14:25:00,
2013-08-19 08:30:00,60.6,49.2,29.78,SSE,153,0.0,0.0,66,0.00,,---,0.00,VWS V13.00,2013-08-19 14:30:00,
2013-08-19 08:35:00,61.3,49.5,29.78,SSE,153,0.0,0.0,65,0.00,,---,0.00,VWS V13.00,2013-08-19 14:35:00,
2013-08-19 08:40:00,62.2,50.3,29.78,SSE,153,0.0,0.0,65,0.00,,---,0.00,VWS V13.00,2013-08-19 14:40:00,
2013-08-19 08:45:00,63.2,50.8,29.78,SSE,153,0.0,0.0,64,0.00,,---,0.00,VWS V13.00,2013-08-19 14:45:00,
2013-08-19 08:50:00,64.1,50.8,29.78,SSE,153,0.0,0.0,62,0.00,,---,0.00,VWS V13.00,2013-08-19 14:50:00,
2013-08-19 08:54:00,65.2,52.7,29.81,SSE,153,0.0,0.0,64,0.00,,---,0.00,VWS V13.00,2013-08-19 14:54:00,
2013-08-19 08:59:00,66.0,52.2,29.81,SSE,153,0.0,0.0,61,0.00,,---,0.00,VWS V13.00,2013-08-19 14:59:00,
2013-08-19 09:04:00,66.7,50.0,29.81,SSE,153,0.0,0.0,55,0.00,,---,0.00,VWS V13.00,2013-08-19 15:04:00,
2013-08-19 09:09:00,67.4,51.2,29.79,SSE,153,0.0,0.0,56,0.00,,---,0.00,VWS V13.00,2013-08-19 15:09:00,
2013-08-19 09:14:00,68.2,50.9,29.79,SSE,153,0.0,0.0,54,0.00,,---,0.00,VWS V13.00,2013-08-19 15:14:00,
2013-08-19 09:19:00,68.9,48.4,29.79,SSE,152,0.0,0.0,48,0.00,,---,0.00,VWS V13.00,2013-08-19 15:19:00,
2013-08-19 09:24:00,69.7,48.0,29.78,SSE,153,0.0,0.0,46,0.00,,---,0.00,VWS V13.00,2013-08-19 15:24:00,
2013-08-19 09:29:00,70.4,48.7,29.78,SSE,153,0.0,0.0,46,0.00,,---,0.00,VWS V13.00,2013-08-19 15:29:00,
2013-08-19 09:34:00,71.2,49.4,29.78,SSE,153,0.0,0.0,46,0.00,,---,0.00,VWS V13.00,2013-08-19 15:34:00,
2013-08-19 09:39:00,72.0,48.9,29.78,SSE,153,0.0,0.0,44,0.00,,---,0.00,VWS V13.00,2013-08-19 15:39:00,
2013-08-19 09:44:00,72.8,49.0,29.78,SSE,153,0.0,0.0,43,0.00,,---,0.00,VWS V13.00,2013-08-19 15:44:00,
2013-08-19 09:49:00,73.7,51.1,29.78,SSE,153,0.0,0.0,45,0.00,,---,0.00,VWS V13.00,2013-08-19 15:49:00,
2013-08-19 09:54:00,74.4,47.9,29.79,SSE,153,0.0,0.0,39,0.00,,---,0.00,VWS V13.00,2013-08-19 15:54:00,
2013-08-19 09:59:00,74.8,48.2,29.79,SSE,153,0.0,0.0,39,0.00,,---,0.00,VWS V13.00,2013-08-19 15:59:00,
2013-08-19 10:04:00,75.2,49.9,29.79,SSE,153,0.0,0.0,41,0.00,,---,0.00,VWS V13.00,2013-08-19 16:04:00,
2013-08-19 10:09:00,75.3,48.0,29.78,SSE,153,0.0,0.0,38,0.00,,---,0.00,VWS V13.00,2013-08-19 16:09:00,
2013-08-19 10:14:00,75.7,49.7,29.78,SSE,153,0.0,0.0,40,0.00,,---,0.00,VWS V13.00,2013-08-19 16:14:00,
2013-08-19 10:19:00,76.1,50.0,29.78,SE,138,0.0,0.0,40,0.00,,---,0.00,VWS V13.00,2013-08-19 16:19:00,
2013-08-19 10:24:00,76.4,48.9,29.77,SE,132,0.0,0.0,38,0.00,,---,0.00,VWS V13.00,2013-08-19 16:24:00,
2013-08-19 10:29:00,76.6,48.4,29.77,SE,132,0.0,0.0,37,0.00,,---,0.00,VWS V13.00,2013-08-19 16:29:00,
2013-08-19 10:34:00,76.9,50.8,29.77,East,96,0.0,5.0,40,0.00,,---,0.00,VWS V13.00,2013-08-19 16:34:00,
2013-08-19 10:39:00,77.2,48.9,29.77,East,88,0.0,1.0,37,0.00,,---,0.00,VWS V13.00,2013-08-19 16:39:00,
2013-08-19 10:44:00,77.5,49.2,29.77,East,84,0.0,3.0,37,0.00,,---,0.00,VWS V13.00,2013-08-19 16:44:00,
2013-08-19 10:49:00,77.6,45.4,29.77,NE,55,0.0,4.0,32,0.00,,---,0.00,VWS V13.00,2013-08-19 16:49:00,
2013-08-19 10:54:00,77.6,46.2,29.77,NNW,348,0.0,7.0,33,0.00,,---,0.00,VWS V13.00,2013-08-19 16:54:00,
2013-08-19 10:59:00,77.7,44.7,29.77,NNW,348,0.0,7.0,31,0.00,,---,0.00,VWS V13.00,2013-08-19 16:59:00,
2013-08-19 11:04:00,77.8,45.6,29.77,North,350,0.0,7.0,32,0.00,,---,0.00,VWS V13.00,2013-08-19 17:04:00,
2013-08-19 11:09:00,78.0,45.8,29.77,NNW,338,3.0,6.0,32,0.00,,---,0.00,VWS V13.00,2013-08-19 17:09:00,
2013-08-19 11:14:00,78.1,48.2,29.77,North,5,0.0,7.0,35,0.00,,---,0.00,VWS V13.00,2013-08-19 17:14:00,
2013-08-19 11:19:00,78.3,46.0,29.77,North,355,0.0,7.0,32,0.00,,---,0.00,VWS V13.00,2013-08-19 17:19:00,
2013-08-19 11:24:00,78.4,46.1,29.77,NNW,341,0.0,7.0,32,0.00,,---,0.00,VWS V13.00,2013-08-19 17:24:00,
2013-08-19 11:29:00,78.6,47.1,29.77,NNW,340,5.0,7.0,33,0.00,,---,0.00,VWS V13.00,2013-08-19 17:29:00,
2013-08-19 11:34:00,78.8,47.3,29.77,NNW,340,0.0,7.0,33,0.00,,---,0.00,VWS V13.00,2013-08-19 17:34:00,
2013-08-19 11:39:00,79.1,45.0,29.76,NNW,346,1.0,7.0,30,0.00,,---,0.00,VWS V13.00,2013-08-19 17:39:00,
2013-08-19 11:44:00,79.3,48.5,29.76,NNW,344,0.0,8.0,34,0.00,,---,0.00,VWS V13.00,2013-08-19 17:44:00,
2013-08-19 11:49:00,79.5,45.4,29.76,NNW,340,0.0,8.0,30,0.00,,---,0.00,VWS V13.00,2013-08-19 17:49:00,
2013-08-19 11:54:00,79.7,47.3,29.76,NNE,13,6.0,9.0,32,0.00,,---,0.00,VWS V13.00,2013-08-19 17:54:00,
2013-08-19 11:59:00,80.1,45.9,29.76,North,360,5.0,11.0,30,0.00,,---,0.00,VWS V13.00,2013-08-19 17:59:00,
2013-08-19 12:04:00,80.2,45.1,29.76,North,5,5.0,11.0,29,0.00,,---,0.00,VWS V13.00,2013-08-19 18:04:00,
2013-08-19 12:09:00,80.4,45.3,29.75,NNE,23,5.0,10.0,29,0.00,,---,0.00,VWS V13.00,2013-08-19 18:09:00,
2013-08-19 12:14:00,80.9,49.1,29.75,North,10,6.0,10.0,33,0.00,,---,0.00,VWS V13.00,2013-08-19 18:14:00,
2013-08-19 12:19:00,81.1,47.6,29.75,North,9,4.0,10.0,31,0.00,,---,0.00,VWS V13.00,2013-08-19 18:19:00,
2013-08-19 12:24:00,81.3,47.8,29.74,NNW,331,4.0,11.0,31,0.00,,---,0.00,VWS V13.00,2013-08-19 18:24:00,
2013-08-19 12:29:00,81.6,45.4,29.74,NNW,348,5.0,11.0,28,0.00,,---,0.00,VWS V13.00,2013-08-19 18:29:00,
2013-08-19 12:34:00,81.8,47.4,29.74,NNW,332,6.0,11.0,30,0.00,,---,0.00,VWS V13.00,2013-08-19 18:34:00,
2013-08-19 12:39:00,82.0,45.7,29.73,NNW,346,3.0,7.0,28,0.00,,---,0.00,VWS V13.00,2013-08-19 18:39:00,
2013-08-19 12:44:00,82.4,48.8,29.73,NNE,13,3.0,10.0,31,0.00,,---,0.00,VWS V13.00,2013-08-19 18:44:00,
2013-08-19 12:49:00,82.7,49.0,29.73,NNE,21,3.0,10.0,31,0.00,,---,0.00,VWS V13.00,2013-08-19 18:49:00,
2013-08-19 12:54:00,83.0,51.0,29.73,NNW,346,6.0,12.0,33,0.00,,---,0.00,VWS V13.00,2013-08-19 18:54:00,
2013-08-19 12:59:00,83.0,46.6,29.73,NNW,329,3.0,12.0,28,0.00,,---,0.00,VWS V13.00,2013-08-19 18:59:00,
2013-08-19 13:04:00,82.9,48.3,29.73,NNE,31,3.0,12.0,30,0.00,,---,0.00,VWS V13.00,2013-08-19 19:04:00,
2013-08-19 13:09:00,83.0,48.4,29.73,NNE,16,3.0,6.0,30,0.00,,---,0.00,VWS V13.00,2013-08-19 19:09:00,
2013-08-19 13:14:00,83.6,45.1,29.73,North,355,0.0,6.0,26,0.00,,---,0.00,VWS V13.00,2013-08-19 19:14:00,
2013-08-19 13:19:00,84.0,47.4,29.73,NNW,329,5.0,10.0,28,0.00,,---,0.00,VWS V13.00,2013-08-19 19:19:00,
2013-08-19 13:24:00,84.7,46.1,29.71,WNW,283,7.0,12.0,26,0.00,,---,0.00,VWS V13.00,2013-08-19 19:24:00,
2013-08-19 13:29:00,85.0,48.3,29.71,WNW,291,5.0,12.0,28,0.00,,---,0.00,VWS V13.00,2013-08-19 19:29:00,
2013-08-19 13:34:00,84.8,45.1,29.71,WNW,289,7.0,12.0,25,0.00,,---,0.00,VWS V13.00,2013-08-19 19:34:00,
2013-08-19 13:39:00,85.2,46.5,29.71,West,263,13.0,15.0,26,0.00,,---,0.00,VWS V13.00,2013-08-19 19:39:00,
2013-08-19 13:44:00,85.5,48.7,29.71,WNW,294,6.0,15.0,28,0.00,,---,0.00,VWS V13.00,2013-08-19 19:44:00,
2013-08-19 13:49:00,85.2,47.5,29.71,NW,313,1.0,15.0,27,0.00,,---,0.00,VWS V13.00,2013-08-19 19:49:00,
2013-08-19 13:54:00,85.2,48.5,29.70,NW,315,0.0,15.0,28,0.00,,---,0.00,VWS V13.00,2013-08-19 19:54:00,
2013-08-19 13:59:00,85.5,47.7,29.70,WNW,300,5.0,15.0,27,0.00,,---,0.00,VWS V13.00,2013-08-19 19:59:00,
2013-08-19 14:04:00,85.8,46.0,29.70,WSW,257,3.0,19.0,25,0.00,,---,0.00,VWS V13.00,2013-08-19 20:04:00,
2013-08-19 14:09:00,85.9,47.1,29.70,NNW,327,2.0,5.0,26,0.00,,---,0.00,VWS V13.00,2013-08-19 20:09:00,
2013-08-19 14:14:00,85.4,44.5,29.70,NNW,333,0.0,5.0,24,0.00,,---,0.00,VWS V13.00,2013-08-19 20:14:00,
2013-08-19 14:19:00,85.7,44.8,29.70,NW,306,5.0,10.0,24,0.00,,---,0.00,VWS V13.00,2013-08-19 20:19:00,
2013-08-19 14:24:00,86.3,46.4,29.70,NW,313,6.0,14.0,25,0.00,,---,0.00,VWS V13.00,2013-08-19 20:24:00,
2013-08-19 14:29:00,86.4,48.5,29.70,NW,315,10.0,14.0,27,0.00,,---,0.00,VWS V13.00,2013-08-19 20:29:00,
2013-08-19 14:34:00,86.7,47.8,29.70,NW,314,10.0,17.0,26,0.00,,---,0.00,VWS V13.00,2013-08-19 20:34:00,
2013-08-19 14:39:00,86.8,50.8,29.68,NW,321,11.0,11.0,29,0.00,,---,0.00,VWS V13.00,2013-08-19 20:39:00,
2013-08-19 14:44:00,86.7,47.8,29.68,NNW,334,4.0,11.0,26,0.00,,---,0.00,VWS V13.00,2013-08-19 20:44:00,
2013-08-19 14:49:00,86.7,47.8,29.68,NNW,338,0.0,11.0,26,0.00,,---,0.00,VWS V13.00,2013-08-19 20:49:00,
2013-08-19 14:54:00,86.8,50.8,29.69,NW,319,9.0,11.0,29,0.00,,---,0.00,VWS V13.00,2013-08-19 20:54:00,
2013-08-19 14:59:00,86.8,45.7,29.69,North,360,6.0,11.0,24,0.00,,---,0.00,VWS V13.00,2013-08-19 20:59:00,
2013-08-19 15:04:00,87.0,49.0,29.69,NW,325,10.0,13.0,27,0.00,,---,0.00,VWS V13.00,2013-08-19 21:04:00,
2013-08-19 15:09:00,87.1,46.0,29.69,NW,309,5.0,5.0,24,0.00,,---,0.00,VWS V13.00,2013-08-19 21:09:00,
2013-08-19 15:14:00,87.3,49.3,29.69,North,350,6.0,7.0,27,0.00,,---,0.00,VWS V13.00,2013-08-19 21:14:00,
2013-08-19 15:19:00,87.6,47.5,29.69,WNW,300,4.0,11.0,25,0.00,,---,0.00,VWS V13.00,2013-08-19 21:19:00,
2013-08-19 15:24:00,87.6,47.5,29.68,NW,324,6.0,13.0,25,0.00,,---,0.00,VWS V13.00,2013-08-19 21:24:00,
2013-08-19 15:29:00,87.3,49.3,29.68,NNW,336,10.0,13.0,27,0.00,,---,0.00,VWS V13.00,2013-08-19 21:29:00,
2013-08-19 15:34:00,87.6,47.5,29.68,NW,326,12.0,15.0,25,0.00,,---,0.00,VWS V13.00,2013-08-19 21:34:00,
2013-08-19 15:39:00,87.5,46.3,29.67,NW,307,4.0,11.0,24,0.00,,---,0.00,VWS V13.00,2013-08-19 21:39:00,
2013-08-19 15:44:00,87.5,46.3,29.67,WNW,299,10.0,17.0,24,0.00,,---,0.00,VWS V13.00,2013-08-19 21:44:00,
2013-08-19 15:49:00,87.6,47.5,29.67,NW,323,8.0,17.0,25,0.00,,---,0.00,VWS V13.00,2013-08-19 21:49:00,
2013-08-19 15:54:00,87.5,48.4,29.67,NW,308,3.0,17.0,26,0.00,,---,0.00,VWS V13.00,2013-08-19 21:54:00,
2013-08-19 15:59:00,87.7,47.5,29.67,WNW,288,5.0,17.0,25,0.00,,---,0.00,VWS V13.00,2013-08-19 21:59:00,
2013-08-19 16:04:00,87.6,50.5,29.67,NNW,331,4.0,17.0,28,0.00,,---,0.00,VWS V13.00,2013-08-19 22:04:00,
2013-08-19 16:09:00,87.9,50.8,29.66,West,277,1.0,12.0,28,0.00,,---,0.00,VWS V13.00,2013-08-19 22:09:00,
2013-08-19 16:14:00,88.6,46.1,29.66,West,271,10.0,22.0,23,0.00,,---,0.00,VWS V13.00,2013-08-19 22:14:00,
2013-08-19 16:19:00,88.9,45.2,29.66,West,269,9.0,39.0,22,0.00,,---,0.00,VWS V13.00,2013-08-19 22:19:00,
2013-08-19 16:24:00,88.9,46.3,29.65,WNW,285,14.0,39.0,23,0.00,,---,0.00,VWS V13.00,2013-08-19 22:24:00,
2013-08-19 16:29:00,88.9,46.3,29.65,WNW,290,11.0,39.0,23,0.00,,---,0.00,VWS V13.00,2013-08-19 22:29:00,
2013-08-19 16:34:00,88.7,46.2,29.65,WNW,287,6.0,39.0,23,0.00,,---,0.00,VWS V13.00,2013-08-19 22:34:00,
2013-08-19 16:39:00,89.0,44.0,29.64,WSW,257,21.0,24.0,21,0.00,,---,0.00,VWS V13.00,2013-08-19 22:39:00,
2013-08-19 16:44:00,89.2,45.4,29.64,West,271,19.0,24.0,22,0.00,,---,0.00,VWS V13.00,2013-08-19 22:44:00,
2013-08-19 16:49:00,89.1,42.8,29.64,West,269,14.0,24.0,20,0.00,,---,0.00,VWS V13.00,2013-08-19 22:49:00,
2013-08-19 16:54:00,89.1,44.1,29.65,WNW,282,18.0,25.0,21,0.00,,---,0.00,VWS V13.00,2013-08-19 22:54:00,
2013-08-19 16:59:00,89.0,42.8,29.65,West,271,16.0,25.0,20,0.00,,---,0.00,VWS V13.00,2013-08-19 22:59:00,
2013-08-19 17:04:00,88.9,45.2,29.65,West,271,15.0,25.0,22,0.00,,---,0.00,VWS V13.00,2013-08-19 23:04:00,
2013-08-19 17:09:00,89.0,45.3,29.65,West,277,13.0,14.0,22,0.00,,---,0.00,VWS V13.00,2013-08-19 23:09:00,
2013-08-19 17:14:00,88.8,45.1,29.65,WNW,291,6.0,14.0,22,0.00,,---,0.00,VWS V13.00,2013-08-19 23:14:00,
2013-08-19 17:19:00,88.8,45.1,29.65,WNW,292,15.0,19.0,22,0.00,,---,0.00,VWS V13.00,2013-08-19 23:19:00,
2013-08-19 17:24:00,88.5,44.8,29.65,WNW,296,16.0,19.0,22,0.00,,---,0.00,VWS V13.00,2013-08-19 23:24:00,
2013-08-19 17:29:00,88.4,40.9,29.65,West,265,17.0,21.0,19,0.00,,---,0.00,VWS V13.00,2013-08-19 23:29:00,
2013-08-19 17:34:00,88.4,42.3,29.65,WSW,252,12.0,21.0,20,0.00,,---,0.00,VWS V13.00,2013-08-19 23:34:00,
2013-08-19 17:39:00,88.5,41.0,29.64,West,259,15.0,19.0,19,0.00,,---,0.00,VWS V13.00,2013-08-19 23:39:00,
2013-08-19 17:44:00,88.5,42.3,29.64,WSW,256,14.0,23.0,20,0.00,,---,0.00,VWS V13.00,2013-08-19 23:44:00,
2013-08-19 17:49:00,88.6,42.4,29.64,West,276,18.0,23.0,20,0.00,,---,0.00,VWS V13.00,2013-08-19 23:49:00,
2013-08-19 17:54:00,88.2,42.1,29.65,WNW,282,13.0,23.0,20,0.00,,---,0.00,VWS V13.00,2013-08-19 23:54:00,
2013-08-19 17:59:00,88.0,41.9,29.65,West,266,14.0,23.0,20,0.00,,---,0.00,VWS V13.00,2013-08-19 23:59:00,
2013-08-19 18:04:00,88.1,42.0,29.65,West,272,14.0,24.0,20,0.00,,---,0.00,VWS V13.00,2013-08-20 00:04:00,
2013-08-19 18:09:00,87.9,43.1,29.65,WNW,294,13.0,18.0,21,0.00,,---,0.00,VWS V13.00,2013-08-20 00:09:00,
2013-08-19 18:14:00,87.4,43.9,29.65,WNW,284,14.0,18.0,22,0.00,,---,0.00,VWS V13.00,2013-08-20 00:14:00,
2013-08-19 18:19:00,87.1,44.8,29.65,WNW,296,14.0,18.0,23,0.00,,---,0.00,VWS V13.00,2013-08-20 00:19:00,
2013-08-19 18:24:00,86.8,42.2,29.65,West,271,12.0,18.0,21,0.00,,---,0.00,VWS V13.00,2013-08-20 00:24:00,
2013-08-19 18:29:00,86.5,40.7,29.65,West,281,10.0,18.0,20,0.00,,---,0.00,VWS V13.00,2013-08-20 00:29:00,
2013-08-19 18:34:00,86.3,43.0,29.65,WNW,286,7.0,18.0,22,0.00,,---,0.00,VWS V13.00,2013-08-20 00:34:00,
2013-08-19 18:39:00,85.9,41.5,29.65,WNW,290,15.0,15.0,21,0.00,,---,0.00,VWS V13.00,2013-08-20 00:39:00,
2013-08-19 18:44:00,85.8,41.4,29.65,WNW,290,14.0,15.0,21,0.00,,---,0.00,VWS V13.00,2013-08-20 00:44:00,
2013-08-19 18:49:00,85.6,42.4,29.65,WNW,283,7.0,15.0,22,0.00,,---,0.00,VWS V13.00,2013-08-20 00:49:00,
2013-08-19 18:54:00,85.5,42.3,29.63,WNW,295,13.0,15.0,22,0.00,,---,0.00,VWS V13.00,2013-08-20 00:54:00,
2013-08-19 18:59:00,85.4,44.5,29.63,NW,308,9.0,15.0,24,0.00,,---,0.00,VWS V13.00,2013-08-20 00:59:00,
2013-08-19 19:04:00,85.0,44.2,29.63,NW,321,6.0,15.0,24,0.00,,---,0.00,VWS V13.00,2013-08-20 01:04:00,
2013-08-19 19:09:00,84.5,44.9,29.63,NW,313,10.0,10.0,25,0.00,,---,0.00,VWS V13.00,2013-08-20 01:09:00,
2013-08-19 19:14:00,84.0,44.4,29.63,NW,311,8.0,11.0,25,0.00,,---,0.00,VWS V13.00,2013-08-20 01:14:00,
2013-08-19 19:19:00,83.6,46.1,29.63,NW,314,7.0,11.0,27,0.00,,---,0.00,VWS V13.00,2013-08-20 01:19:00,
2013-08-19 19:24:00,83.2,44.8,29.64,NW,311,6.0,11.0,26,0.00,,---,0.00,VWS V13.00,2013-08-20 01:24:00,
2013-08-19 19:29:00,82.9,45.5,29.64,NW,310,6.0,11.0,27,0.00,,---,0.00,VWS V13.00,2013-08-20 01:29:00,
2013-08-19 19:34:00,82.6,46.2,29.64,NW,309,6.0,11.0,28,0.00,,---,0.00,VWS V13.00,2013-08-20 01:34:00,
2013-08-19 19:39:00,82.3,46.0,29.64,NW,306,5.0,6.0,28,0.00,,---,0.00,VWS V13.00,2013-08-20 01:39:00,
2013-08-19 19:44:00,82.1,45.8,29.64,WNW,300,5.0,6.0,28,0.00,,---,0.00,VWS V13.00,2013-08-20 01:44:00,
2013-08-19 19:49:00,82.0,45.7,29.64,WNW,298,5.0,7.0,28,0.00,,---,0.00,VWS V13.00,2013-08-20 01:49:00,
2013-08-19 19:54:00,81.8,45.5,29.61,WNW,298,4.0,7.0,28,0.00,,---,0.00,VWS V13.00,2013-08-20 01:54:00,
2013-08-19 19:59:00,81.6,45.4,29.61,NW,304,6.0,10.0,28,0.00,,---,0.00,VWS V13.00,2013-08-20 01:59:00,
2013-08-19 20:04:00,81.3,44.2,29.61,NW,304,9.0,10.0,27,0.00,,---,0.00,VWS V13.00,2013-08-20 02:04:00,
2013-08-19 20:09:00,80.7,45.5,29.62,WNW,299,6.0,7.0,29,0.00,,---,0.00,VWS V13.00,2013-08-20 02:09:00,
2013-08-19 20:14:00,80.1,44.1,29.62,WNW,297,5.0,9.0,28,0.00,,---,0.00,VWS V13.00,2013-08-20 02:14:00,
2013-08-19 20:19:00,79.3,44.3,29.62,WNW,283,5.0,9.0,29,0.00,,---,0.00,VWS V13.00,2013-08-20 02:19:00,
2013-08-19 20:24:00,78.6,43.7,29.64,West,280,6.0,9.0,29,0.00,,---,0.00,VWS V13.00,2013-08-20 02:24:00,
2013-08-19 20:29:00,77.8,43.0,29.64,West,279,5.0,9.0,29,0.00,,---,0.00,VWS V13.00,2013-08-20 02:29:00,
2013-08-19 20:34:00,77.2,43.4,29.64,West,275,6.0,9.0,30,0.00,,---,0.00,VWS V13.00,2013-08-20 02:34:00,
2013-08-19 20:39:00,76.5,43.7,29.66,West,261,4.0,7.0,31,0.00,,---,0.00,VWS V13.00,2013-08-20 02:39:00,
2013-08-19 20:44:00,75.9,43.1,29.66,WSW,257,3.0,7.0,31,0.00,,---,0.00,VWS V13.00,2013-08-20 02:44:00,
2013-08-19 20:49:00,75.4,42.7,29.66,WSW,254,5.0,7.0,31,0.00,,---,0.00,VWS V13.00,2013-08-20 02:49:00,
2013-08-19 20:54:00,75.0,42.3,29.63,WSW,252,0.0,7.0,31,0.00,,---,0.00,VWS V13.00,2013-08-20 02:54:00,
2013-08-19 20:59:00,74.8,42.2,29.63,SW,233,0.0,7.0,31,0.00,,---,0.00,VWS V13.00,2013-08-20 02:59:00,
2013-08-19 21:04:00,74.7,41.2,29.63,SW,229,0.0,7.0,30,0.00,,---,0.00,VWS V13.00,2013-08-20 03:04:00,
2013-08-19 21:09:00,74.6,44.4,29.63,SW,227,0.0,0.0,34,0.00,,---,0.00,VWS V13.00,2013-08-20 03:09:00,
2013-08-19 21:14:00,72.6,45.6,29.63,SSE,154,1.0,1.0,38,0.00,,---,0.00,VWS V13.00,2013-08-20 03:14:00,
2013-08-19 21:19:00,70.3,44.9,29.63,SSE,151,2.0,2.0,40,0.00,,---,0.00,VWS V13.00,2013-08-20 03:19:00,
2013-08-19 21:24:00,68.5,44.5,29.66,SE,142,0.0,3.0,42,0.00,,---,0.00,VWS V13.00,2013-08-20 03:24:00,
2013-08-19 21:29:00,67.5,46.0,29.66,SSE,156,0.0,3.0,46,0.00,,---,0.00,VWS V13.00,2013-08-20 03:29:00,
2013-08-19 21:34:00,66.3,44.9,29.66,SSE,159,0.0,3.0,46,0.00,,---,0.00,VWS V13.00,2013-08-20 03:34:00,
2013-08-19 21:39:00,65.7,43.2,29.67,SSE,159,0.0,0.0,44,0.00,,---,0.00,VWS V13.00,2013-08-20 03:39:00,
2013-08-19 21:44:00,65.6,44.8,29.67,SSE,159,0.0,0.0,47,0.00,,---,0.00,VWS V13.00,2013-08-20 03:44:00,
2013-08-19 21:49:00,64.8,45.7,29.67,SSE,159,0.0,3.0,50,0.00,,---,0.00,VWS V13.00,2013-08-20 03:49:00,
2013-08-19 21:54:00,63.7,44.7,29.66,SSE,161,0.0,3.0,50,0.00,,---,0.00,VWS V13.00,2013-08-20 03:54:00,
2013-08-19 21:59:00,62.8,44.9,29.66,SSE,161,0.0,3.0,52,0.00,,---,0.00,VWS V13.00,2013-08-20 03:59:00,
2013-08-19 22:01:00,62.5,45.2,29.66,SSE,160,0.0,3.0,53,0.00,,---,0.00,VWS V13.00,2013-08-20 04:01:00,
2013-08-19 22:02:00,62.3,45.0,29.66,SSE,160,0.0,3.0,53,0.00,,---,0.00,VWS V13.00,2013-08-20 04:02:00,
2013-08-19 22:07:00,61.2,44.9,29.67,SSE,157,0.0,6.0,55,0.00,,---,0.00,VWS V13.00,2013-08-20 04:07:00,
2013-08-19 22:12:00,60.7,44.5,29.67,SSE,157,0.0,2.0,55,0.00,,---,0.00,VWS V13.00,2013-08-20 04:12:00,
2013-08-19 22:17:00,60.0,44.7,29.67,SSE,154,4.0,5.0,57,0.00,,---,0.00,VWS V13.00,2013-08-20 04:17:00,
2013-08-19 22:22:00,59.9,44.2,29.68,SSE,149,9.0,11.0,56,0.00,,---,0.00,VWS V13.00,2013-08-20 04:22:00,
2013-08-19 22:27:00,59.8,44.5,29.68,SE,145,5.0,11.0,57,0.00,,---,0.00,VWS V13.00,2013-08-20 04:27:00,
2013-08-19 22:32:00,59.4,44.6,29.68,SE,146,5.0,11.0,58,0.00,,---,0.00,VWS V13.00,2013-08-20 04:32:00,
2013-08-19 22:37:00,59.0,43.8,29.69,SSE,147,7.0,11.0,57,0.00,,---,0.00,VWS V13.00,2013-08-20 04:37:00,
2013-08-19 22:42:00,59.5,42.9,29.69,SE,142,6.0,9.0,54,0.00,,---,0.00,VWS V13.00,2013-08-20 04:42:00,
2013-08-19 22:47:00,60.6,42.4,29.69,SE,140,5.0,10.0,51,0.00,,---,0.00,VWS V13.00,2013-08-20 04:47:00,
2013-08-19 22:52:00,61.1,42.8,29.68,SE,144,6.0,10.0,51,0.00,,---,0.00,VWS V13.00,2013-08-20 04:52:00,
2013-08-19 22:57:00,60.8,43.1,29.68,SE,143,5.0,10.0,52,0.00,,---,0.00,VWS V13.00,2013-08-20 04:57:00,
2013-08-19 23:02:00,60.3,43.1,29.68,SE,142,9.0,10.0,53,0.00,,---,0.00,VWS V13.00,2013-08-20 05:02:00,
2013-08-19 23:07:00,59.6,43.0,29.68,SE,144,7.0,10.0,54,0.00,,---,0.00,VWS V13.00,2013-08-20 05:07:00,
2013-08-19 23:12:00,59.1,42.5,29.68,SE,143,5.0,9.0,54,0.00,,---,0.00,VWS V13.00,2013-08-20 05:12:00,
2013-08-19 23:17:00,59.4,42.3,29.68,SE,142,7.0,9.0,53,0.00,,---,0.00,VWS V13.00,2013-08-20 05:17:00,
2013-08-19 23:22:00,59.2,41.6,29.68,SSE,149,7.0,10.0,52,0.00,,---,0.00,VWS V13.00,2013-08-20 05:22:00,
2013-08-19 23:27:00,59.0,41.9,29.68,SSE,155,10.0,10.0,53,0.00,,---,0.00,VWS V13.00,2013-08-20 05:27:00,
2013-08-19 23:32:00,58.9,41.8,29.68,SSE,152,6.0,11.0,53,0.00,,---,0.00,VWS V13.00,2013-08-20 05:32:00,
2013-08-19 23:37:00,58.7,41.6,29.68,SSE,150,9.0,11.0,53,0.00,,---,0.00,VWS V13.00,2013-08-20 05:37:00,
2013-08-19 23:42:00,58.5,41.9,29.68,SSE,151,9.0,10.0,54,0.00,,---,0.00,VWS V13.00,2013-08-20 05:42:00,
2013-08-19 23:47:00,58.3,41.3,29.68,SSE,150,11.0,12.0,53,0.00,,---,0.00,VWS V13.00,2013-08-20 05:47:00,
2013-08-19 23:52:00,58.5,41.5,29.67,SSE,149,10.0,12.0,53,0.00,,---,0.00,VWS V13.00,2013-08-20 05:52:00,
2013-08-19 23:57:00,58.7,41.6,29.67,SE,145,4.0,12.0,53,0.00,,---,0.00,VWS V13.00,2013-08-20 05:57:00,